Regional Weather Roundup
Issued by NWS

Home | Current Version | Previous Version | Text Only | Print | Product List | Glossary Off
Versions: 1 2 3 4 5 6 7 8 9 10 11 12 13 14 15 16 17 18 19 20 21 22 23 24 25 26 27 28 29 30 31 32 33 34 35 36 37 38 39 40 41 42 43 44 45 46 47 48 49 50

000
ASUS43 KLMK 251602
RWRKY
KENTUCKY REGIONAL WEATHER ROUNDUP
NATIONAL WEATHER SERVICE LOUISVILLE KY
1200 PM EDT THU MAY 25 2017

NOTE "FAIR" INDICATES FEW OR NO CLOUDS BELOW 12,000 FEET
WITH NO SIGNIFICANT WEATHER AND/OR OBSTRUCTIONS TO VISIBILITY.

KYZ001>023-026-027-061>063-070>075-251700-
WESTERN AND SOUTH CENTRAL KENTUCKY

CITY           SKY/WX    TMP DP  RH WIND       PRES   REMARKS
PADUCAH        MOSUNNY   69  51  52 W14       29.73S
HENDERSON      CLOUDY    63  56  78 W15       29.69R
OWENSBORO      CLOUDY    62  55  77 W17G23    29.68R
HOPKINSVILLE   MOSUNNY   66  54  66 W16G24    29.72R
BOWLING GREEN  CLOUDY    62  55  77 W14G25    29.69R
GLASGOW        NOT AVBL
$$

KYZ024-025-028>034-038-045-046-053-251700-
NORTH CENTRAL KENTUCKY

CITY           SKY/WX    TMP DP  RH WIND       PRES   REMARKS
LOUISVILLE/SDF CLOUDY    60  58  92 W14       29.57R FOG
LOUISVILLE/LOU CLOUDY    59  59 100 W13       29.56R FOG
FORT KNOX      LGT RAIN  58  56  94 W14G23    29.59R FOG
$$

KYZ035>037-039>044-047>052-055>060-089>105-251700-
NORTHEAST KENTUCKY

CITY           SKY/WX    TMP DP  RH WIND       PRES   REMARKS
LEXINGTON      LGT RAIN  58  55  90 W16G28    29.53R
COVINGTON      LGT RAIN  60  58  92 W15G21    29.47R
FRANKFORT      LGT RAIN  59  55  87 W9G17     29.51R FOG
$$

KYZ054-064>069-076>088-106>120-251700-
SOUTHEAST KENTUCKY

CITY           SKY/WX    TMP DP  RH WIND       PRES   REMARKS
JACKSON        RAIN      54  53  97 VRB3      29.56S FOG
LONDON         LGT RAIN  56  52  86 SW15      29.61R
SOMERSET       NOT AVBL
MIDDLESBORO    DRIZZLE   56  53  88 W6        29.65R
MONTICELLO     LGT RAIN  57  54  89 W22G30    29.67R
$$




USA.gov is the U.S. government's official web portal to all federal, state and local government web resources and services.